Showing default

COSMOS 2508, 40921

Orbit data source: Space-Track

COSMOS 2508, 40921 is a payload satellite owned by VVKO VKS (CIS) in LEO that was launched on Wed, 23 Sep 2015 UTC via an ROKOT launch vehicle from the Plesetsk Missile And Space Complex (PKMTR). Payload-class satellites include a variety of spacecraft equipped with specific instruments for various scientific and technological missions. These include communications satellites like Starlink; space stations such as the ISS; scientific satellites like the Hubble; Earth observation satellites from companies like Planet Labs, Umbra, and HawkEye 360; GPS; miniature CubeSats for education and research; and military/defense satellites.

Loading next visibility...
Identifier
40921, 2015-050B
Orbit
LEO
Country
Flag of CISCIS
Related business
Manufacturer
Resehetnev ISS
Mission
Operational Defense Communications
Bus & Motor
STRELA-3M, Unknown motor
Mass
280 kg wet, 280 kg dry
Launch date (UTC)
2015-09-23 (10 years ago)
Launch vehicle
ROKOT
Launch site
Plesetsk Missile And Space Complex (PKMTR)
Object type
Payload
Rocket body
Debris
Shape & HBR
Cyl + 1 Ant, 3.5 m
Radar Cross Section
1.583 m², Large (>1 m²)

Expand to show TLE details & history
Last TLE update: 11 hours ago

TLE from 11 hours ago
0 COSMOS 2508
1 40921U 15050B   26023.61735118 -.00000034  00000-0 -31741-3 0  9990
2 40921  82.4894 168.2249 0013428 341.0824  18.9755 12.42908179468887
Epoch: 2026-01-23T14:48Z
TLE epoch observation values (Epoch: 2026-01-23T14:48:59.141Z)
Latitude
-0.00006°
Longitude
-176.97512°
Altitude
1,487.002 km
Speed
7.125 km/s
True Right ascension
11h 12m 53s
True Declination
0° 00' 00"
Sunlit
Object was in full shadow at epoch
Visualization orbit readout
Latitude
Unknown
Longitude
Unknown
Altitude
Unknown
Speed
Unknown
Apparent Right ascension
Unknown
Apparent Declination
Unknown
Sunlit
N/A
Visualization observer readout
Local Sidereal Time
03:10:00
Azimuth
Unknown
Elevation
Unknown
Doppler factor
Unknown
Orbital elements
Apogee altitude
1,502.218 km
Perigee altitude
1,481.083 km
Semi-major axis
7,869.788 km
Eccentricity
0.00134
Inclination
82.4894°
RAAN
168.2249°
Arg. of periapsis
341.0824°
True anomaly
19.02561°
Mean anomaly
18.9755°
Eccentric anomaly
19.00055°
Mean motion
3.10884 °/min
Orbital period
115.8 mins
BSTAR
-0.00031741
Loading maneuver chart data...
Computing Atmospheric mass density...
Loading historical data...
Loading historical data...
Loading historical data...
Loading historical data...
Loading historical data...
Loading historical data...
Loading historical data...
Other satellites on launch #50 in the year 2015 (2015-09-23 UTC)

Documentation

Showing up to 5 results
|